Tracking 27380 objects as of 5-Jun-2023
HD Live streaming from Space Station
objects crossing your sky now

FREGAT DEB

Track FREGAT DEB now!
10-day predictions


NORAD ID: 48835
Int'l Code: 2011-037NZ
Perigee: 266.2 km
Apogee: 949.3 km
Inclination: 51.5 °
Period: 96.7 minutes
Semi major axis: 6978 km
RCS: Unknown
Launch date: July 18, 2011
Source: Commonwealth of Independent States (former USSR) (CIS)
Launch site: TYURATAM MISSILE AND SPACE COMPLEX (TTMTR)

Note: This is SATELLITE DEBRIS
Your satellite tracking list
Your tracking list is empty




NASA's NSSDC Master Catalog

Two Line Element Set (TLE):
1 48835U 11037NZ  23155.01570806  .00356924  31193-4  30050-2 0  9993
2 48835  51.4757  63.7589 0489403 127.0845 237.5903 14.89153161107053
Source of the keplerian elements: AFSPC